Meteo pe oră la Almora

Astăzi, 24 Ianuarie, Duminică

Timp Temperatura Precipitaţii Vânt Presiune Umiditate
00:00 +5°C° 0 mm 1 m/s 625 mmHg 74%
01:00 +4°C° 0 mm 1 m/s 625 mmHg 75%
02:00 +4°C° 0 mm 1 m/s 625 mmHg 76%
03:00 +5°C° 0 mm 1 m/s 624 mmHg 76%
04:00 +5°C° 0 mm 1 m/s 624 mmHg 75%
05:00 +5°C° 0 mm 1 m/s 624 mmHg 75%
06:00 +6°C° 0 mm 1 m/s 625 mmHg 68%
07:00 +8°C° 0 mm 1 m/s 626 mmHg 61%
08:00 +8°C° 0 mm 0 m/s 627 mmHg 54%
09:00 +12°C° 0 mm 1 m/s 628 mmHg 47%
10:00 +15°C° 0 mm 1 m/s 629 mmHg 39%
11:00 +18°C° 0 mm 1 m/s 630 mmHg 32%
12:00 +18°C° 0 mm 1 m/s 629 mmHg 33%
13:00 +18°C° 0 mm 1 m/s 629 mmHg 33%
14:00 +17°C° 0 mm 2 m/s 628 mmHg 34%
15:00 +15°C° 0 mm 1 m/s 627 mmHg 40%
16:00 +14°C° 0 mm 1 m/s 627 mmHg 45%
17:00 +11°C° 0 mm 0 m/s 627 mmHg 51%
18:00 +11°C° 0 mm 1 m/s 627 mmHg 57%
19:00 +9°C° 0 mm 1 m/s 627 mmHg 63%
20:00 +8°C° 0 mm 1 m/s 627 mmHg 69%
21:00 +7°C° 0 mm 1 m/s 627 mmHg 73%
22:00 +6°C° 0 mm 1 m/s 627 mmHg 76%
23:00 +6°C° 0 mm 1 m/s 627 mmHg 79%

Mâine, 25 Ianuarie, Luni

Timp Temperatura Precipitaţii Vânt Presiune Umiditate
00:00 +5°C° 0 mm 1 m/s 627 mmHg 80%
01:00 +5°C° 0 mm 1 m/s 627 mmHg 80%
02:00 +5°C° 0 mm 1 m/s 627 mmHg 80%
03:00 +5°C° 0 mm 1 m/s 627 mmHg 78%
04:00 +4°C° 0 mm 1 m/s 626 mmHg 77%
05:00 +4°C° 0 mm 1 m/s 626 mmHg 75%
06:00 +6°C° 0 mm 1 m/s 627 mmHg 68%
07:00 +7°C° 0 mm 1 m/s 628 mmHg 61%
08:00 +9°C° 0 mm 1 m/s 629 mmHg 54%
09:00 +12°C° 0 mm 1 m/s 629 mmHg 44%
10:00 +15°C° 0 mm 1 m/s 630 mmHg 34%
11:00 +19°C° 0 mm 1 m/s 631 mmHg 25%
12:00 +20°C° 0 mm 1 m/s 631 mmHg 23%
13:00 +20°C° 0 mm 1 m/s 630 mmHg 22%
14:00 +20°C° 0 mm 1 m/s 630 mmHg 21%
15:00 +18°C° 0 mm 1 m/s 629 mmHg 29%
16:00 +14°C° 0 mm 1 m/s 628 mmHg 37%
17:00 +12°C° 0 mm 1 m/s 628 mmHg 45%
18:00 +10°C° 0 mm 1 m/s 628 mmHg 53%
19:00 +9°C° 0 mm 1 m/s 628 mmHg 60%
20:00 +6°C° 0 mm 0 m/s 627 mmHg 67%
21:00 +5°C° 0 mm 0 m/s 627 mmHg 68%
22:00 +6°C° 0 mm 1 m/s 627 mmHg 68%
23:00 +5°C° 0 mm 1 m/s 627 mmHg 69%

Poimâine, 26 Ianuarie, Marţi

Timp Temperatura Precipitaţii Vânt Presiune Umiditate
00:00 +5°C° 0 mm 1 m/s 627 mmHg 69%
01:00 +5°C° 0 mm 1 m/s 626 mmHg 68%
02:00 +4°C° 0 mm 1 m/s 626 mmHg 68%
03:00 +4°C° 0 mm 1 m/s 626 mmHg 66%
04:00 +4°C° 0 mm 1 m/s 626 mmHg 65%
05:00 +4°C° 0 mm 1 m/s 625 mmHg 63%
06:00 +5°C° 0 mm 1 m/s 626 mmHg 56%
07:00 +7°C° 0 mm 1 m/s 627 mmHg 49%
08:00 +8°C° 0 mm 1 m/s 628 mmHg 42%
09:00 +12°C° 0 mm 1 m/s 629 mmHg 35%
10:00 +15°C° 0 mm 1 m/s 630 mmHg 28%
11:00 +19°C° 0 mm 1 m/s 630 mmHg 21%
12:00 +19°C° 0 mm 1 m/s 630 mmHg 21%
13:00 +19°C° 0 mm 2 m/s 630 mmHg 21%
14:00 +19°C° 0 mm 2 m/s 629 mmHg 22%
15:00 +16°C° 0 mm 2 m/s 628 mmHg 31%
16:00 +14°C° 0 mm 2 m/s 628 mmHg 41%
17:00 +12°C° 0 mm 2 m/s 627 mmHg 51%
18:00 +10°C° 0 mm 1 m/s 627 mmHg 59%
19:00 +8°C° 0 mm 1 m/s 627 mmHg 67%
20:00 +5°C° 0 mm 0 m/s 627 mmHg 75%
21:00 +5°C° 0 mm 0 m/s 627 mmHg 75%
22:00 +4°C° 0 mm 0 m/s 627 mmHg 75%
23:00 +5°C° 0 mm 1 m/s 627 mmHg 74%

27 Ianuarie, Miercuri

Timp Temperatura Precipitaţii Vânt Presiune Umiditate
00:00 +5°C° 0 mm 1 m/s 626 mmHg 73%
01:00 +4°C° 0 mm 1 m/s 626 mmHg 72%
02:00 +4°C° 0 mm 1 m/s 626 mmHg 70%
03:00 +4°C° 0 mm 1 m/s 625 mmHg 69%
04:00 +3°C° 0 mm 1 m/s 625 mmHg 67%
05:00 +3°C° 0 mm 1 m/s 625 mmHg 65%
06:00 +5°C° 0 mm 1 m/s 626 mmHg 58%
07:00 +6°C° 0 mm 1 m/s 627 mmHg 51%
08:00 +8°C° 0 mm 1 m/s 628 mmHg 43%
09:00 +11°C° 0 mm 1 m/s 628 mmHg 36%
10:00 +14°C° 0 mm 1 m/s 629 mmHg 30%
11:00 +18°C° 0 mm 1 m/s 630 mmHg 23%
12:00 +17°C° 0 mm 2 m/s 630 mmHg 23%
13:00 +18°C° 0 mm 2 m/s 629 mmHg 22%
14:00 +18°C° 0 mm 3 m/s 629 mmHg 22%
15:00 +16°C° 0 mm 2 m/s 628 mmHg 30%
16:00 +13°C° 0 mm 2 m/s 627 mmHg 39%
17:00 +11°C° 0 mm 1 m/s 627 mmHg 47%
18:00 +9°C° 0 mm 1 m/s 627 mmHg 56%
19:00 +7°C° 0 mm 1 m/s 627 mmHg 65%
20:00 +5°C° 0 mm 0 m/s 627 mmHg 74%
21:00 +4°C° 0 mm 0 m/s 627 mmHg 74%
22:00 +4°C° 0 mm 0 m/s 627 mmHg 74%
23:00 +3°C° 0 mm 0 m/s 627 mmHg 74%

28 Ianuarie, Joi

Timp Temperatura Precipitaţii Vânt Presiune Umiditate
00:00 +4°C° 0 mm 1 m/s 626 mmHg 73%
01:00 +4°C° 0 mm 1 m/s 626 mmHg 73%
02:00 +3°C° 0 mm 1 m/s 626 mmHg 72%
03:00 +3°C° 0 mm 1 m/s 625 mmHg 70%
04:00 +3°C° 0 mm 1 m/s 625 mmHg 68%
05:00 +3°C° 0 mm 1 m/s 625 mmHg 66%
06:00 +4°C° 0 mm 1 m/s 626 mmHg 59%
07:00 +6°C° 0 mm 1 m/s 627 mmHg 51%
08:00 +8°C° 0 mm 1 m/s 628 mmHg 44%
09:00 +11°C° 0 mm 1 m/s 628 mmHg 37%
10:00 +14°C° 0 mm 1 m/s 629 mmHg 30%
11:00 +17°C° 0 mm 2 m/s 630 mmHg 23%
12:00 +17°C° 0 mm 2 m/s 630 mmHg 23%
13:00 +17°C° 0 mm 3 m/s 629 mmHg 23%
14:00 +17°C° 0 mm 3 m/s 628 mmHg 23%
15:00 +15°C° 0 mm 2 m/s 628 mmHg 31%
16:00 +13°C° 0 mm 2 m/s 627 mmHg 38%
17:00 +10°C° 0 mm 1 m/s 627 mmHg 46%
18:00 +9°C° 0 mm 1 m/s 627 mmHg 54%
19:00 +7°C° 0 mm 1 m/s 627 mmHg 63%
20:00 +4°C° 0 mm 0 m/s 627 mmHg 71%
21:00 +4°C° 0 mm 0 m/s 627 mmHg 72%
22:00 +4°C° 0 mm 1 m/s 627 mmHg 73%
23:00 +4°C° 0 mm 1 m/s 627 mmHg 75%

29 Ianuarie, Vineri

Timp Temperatura Precipitaţii Vânt Presiune Umiditate
Arată mai mult

Formular de consimțământ

Meteoprog și furnizorii noștri de servicii pot stoca și accesa date personale, precum cookies, identificatori de dispozitiv sau alte tehnologii similare pe dispozitivul dumneavoastră și procesa astfel de date pentru a personaliza conținutul și reclamele, dar și pentru a oferi caracteristici de social media și pentru a analiza traficul.

  • Stocarea și/sau accesarea informațiilor pe dispozitivul dumneavoastră

    Cookies, identificatori de dispozitiv sau alte informații pot fi stocate sau accesate pe dispozitiv în scopurile indicate mai sus.

  • Reclame și conținut personalizat, evaluarea reclamelor și a conținutului, informații despre audiențe și dezvoltarea produselor

    Reclamele și conținutul pot fi personalizate pe baza unui profil. Pot fi adăugate date suplimentare pentru a personaliza mai bine reclamele și conținutul. Performanța reclamelor și conținutului poate fi măsurată. Pot fi obținute informații despre utilizatorii care au văzut reclamele și conținutul. Aceste date pot fi utilizate pentru a dezvolta sau îmbunătăți experiența utilizatorilor, sistemele și software-ul.

Dând clic pe ‘Sunt de acord’, permiteți utilizarea cookie-urilor menționate, a identificatorilor de dispozitiv, balizelor web sau altor tehnologii similare. Setările pot fi modificate din browser-ul dispozitivului dumneavoastră.

În anumite scopuri, interesele legitime pot prima asupra consimțământului. Puteți citi mai multe informații în acest sens în Politica privind Confidențialitatea Datelor și Cookie.